Stations météo

réclame
Mon MeteoGroup
Kinloss, Grande-Bretagne (3066): Température de l'air & dewpoint: 17.04.2018 03:00:00 - 23.04.2018 03:00:00 (BST)Kinloss, Grande-Bretagne (3066): Température de l'air -20cm & Température de l'air -100cm: 17.04.2018 03:00:00 - 23.04.2018 03:00:00 (BST)Kinloss, Grande-Bretagne (3066): Vitesse du vent & gusts: 17.04.2018 03:00:00 - 23.04.2018 03:00:00 (BST)Kinloss, Grande-Bretagne (3066): Direction du vent: 17.04.2018 03:00:00 - 23.04.2018 03:00:00 (BST)Kinloss, Grande-Bretagne (3066): reduced air pressure: 17.04.2018 03:00:00 - 23.04.2018 03:00:00 (BST)Kinloss, Grande-Bretagne (3066): visibility: 17.04.2018 03:00:00 - 23.04.2018 03:00:00 (BST)Kinloss, Grande-Bretagne (3066): Ensoleillement: 17.04.2018 03:00:00 - 23.04.2018 03:00:00 (BST)Kinloss, Grande-Bretagne (3066): Quantités de précipitations: 17.04.2018 03:00:00 - 23.04.2018 03:00:00 (BST)
Date & Time tt [°C] td [°C] tt -20cm [°C] tt -100cm [°C] ff [km/h] ff [knt] fx [km/h] fx [knt] dd ppp [hPa] vv [km] sd [min] rr [mm]
23.04.2018 03:00:00 - - - - - - - - - - - - -
23.04.2018 02:00:00 8,5 4,8 - - 11 6 - - SSW 998,9 70 0 0,0
23.04.2018 01:00:00 8,7 4,4 - - 13 7 - - SW 998,9 70 - 0,0
23.04.2018 00:00:00 8,9 5,2 - - 13 7 - - SSW 999,0 - 0 0,0
22.04.2018 23:00:00 9,3 4,6 - - 15 8 - - SSW 999,0 70 0 0,0
22.04.2018 22:00:00 9,7 4,3 - - 13 7 - - S 999,3 70 0 0,0
22.04.2018 21:00:00 9,9 3,9 - - 9 5 - - SSW 999,5 75 6 0,0
22.04.2018 20:00:00 11,0 3,9 - - 18 10 - - SW 999,5 60 18 0,0
22.04.2018 19:00:00 11,6 3,8 - - 24 13 48 26 SW 999,5 75 36 0,0
22.04.2018 18:00:00 11,5 5,3 - - 18 10 - - WSW 999,6 75 6 0,0
22.04.2018 17:00:00 11,2 6,4 - - 26 14 46 25 W 999,8 70 6 0,0
22.04.2018 16:00:00 13,1 5,6 - - 35 19 48 26 WSW 999,4 70 30 0,0
22.04.2018 15:00:00 11,7 6,8 - - 24 13 - - SW 999,4 50 0 0,0
22.04.2018 14:00:00 11,7 6,2 - - 26 14 - - WSW 999,5 60 0 0,0
22.04.2018 13:00:00 11,4 8,3 - - 16 9 - - WSW 999,8 24 0 0,0
22.04.2018 12:00:00 11,6 6,6 - - 21 11 - - W 1000,0 40 0 0,0
22.04.2018 11:00:00 12,1 6,0 - - 8 4 - - W 1000,4 45 0 0,0
22.04.2018 10:00:00 11,0 6,4 8,9 7,2 8 4 - - SW 1001,1 50 0 0,0
22.04.2018 09:00:00 10,9 6,8 - - 11 6 - - WSW 1001,0 40 0 0,0
22.04.2018 08:00:00 11,5 6,2 - - 11 6 - - SW 1001,6 40 0 0,0
22.04.2018 07:00:00 8,5 5,1 - - 4 2 - - SSW 1001,6 50 0 0,0
22.04.2018 06:00:00 7,6 4,7 - - 2 1 - - SE 1002,1 40 0 0,0
22.04.2018 05:00:00 7,7 5,1 - - 4 2 - - ENE 1003,2 45 0 0,0
22.04.2018 04:00:00 8,2 5,0 - - 4 2 - - SSW 1004,3 40 0 0,0
22.04.2018 03:00:00 8,8 5,4 - - 5 3 - - ESE 1005,1 26 0 0,0
22.04.2018 02:00:00 8,0 4,6 - - 2 1 - - SSE 1006,4 45 0 0,0
22.04.2018 01:00:00 10,5 5,4 - - 4 2 - - ESE 1007,6 45 - 0,0
22.04.2018 00:00:00 10,4 5,0 - - 11 6 - - ENE 1008,3 45 0 0,0
21.04.2018 23:00:00 12,7 5,3 - - 16 9 - - SSE 1009,2 50 0 0,0
21.04.2018 22:00:00 12,8 5,8 - - 16 9 - - SE 1010,0 55 0 0,0
21.04.2018 21:00:00 12,0 5,0 - - 5 3 - - E 1010,8 65 0 0,0
21.04.2018 20:00:00 11,7 6,0 - - 9 5 - - ENE 1011,6 45 0 0,0
21.04.2018 19:00:00 12,6 5,7 - - 8 4 - - N 1012,3 65 18 0,0
21.04.2018 18:00:00 15,0 5,4 - - 13 7 - - NNE 1012,8 65 54 0,0
21.04.2018 17:00:00 15,6 5,7 - - 15 8 - - NNE 1013,6 65 54 0,0
21.04.2018 16:00:00 12,6 5,5 - - 16 9 - - N 1014,6 55 54 0,0
21.04.2018 15:00:00 15,0 5,3 - - 16 9 - - N 1015,5 55 60 0,0
21.04.2018 14:00:00 14,2 5,4 - - 22 12 - - NNE 1016,6 75 60 0,0
21.04.2018 13:00:00 12,8 6,5 - - 18 10 - - N 1017,5 55 30 0,0
21.04.2018 12:00:00 12,1 4,7 - - 11 6 - - NW 1018,4 60 12 0,0
21.04.2018 11:00:00 12,8 4,8 - - 11 6 - - SSW 1019,3 65 6 0,0
21.04.2018 10:00:00 12,0 4,0 8,7 7,0 11 6 - - SSW 1019,7 55 60 0,0
21.04.2018 09:00:00 10,4 4,1 - - 9 5 - - S 1020,2 60 60 0,0
21.04.2018 08:00:00 9,0 4,3 - - 9 5 - - SSW 1020,8 60 60 0,0
21.04.2018 07:00:00 5,5 3,2 - - 2 1 - - SSW 1021,0 60 36 0,0
21.04.2018 06:00:00 4,6 1,9 - - 8 4 - - SSW 1020,9 60 0 0,0
21.04.2018 05:00:00 5,5 1,6 - - 9 5 - - SSW 1021,1 60 0 0,0
21.04.2018 04:00:00 5,5 1,8 - - 11 6 - - SSW 1021,3 60 0 0,0
21.04.2018 03:00:00 6,0 2,3 - - 9 5 - - SSW 1021,8 55 0 0,0
21.04.2018 02:00:00 6,4 2,8 - - 15 8 - - SSW 1022,2 50 0 0,0
21.04.2018 01:00:00 6,8 3,0 - - 15 8 - - SSW 1022,3 55 - 0,0
21.04.2018 00:00:00 7,2 3,0 - - 8 4 - - SSW 1022,3 55 0 0,0
20.04.2018 23:00:00 8,2 3,8 - - 9 5 - - S 1022,0 60 0 0,0
20.04.2018 22:00:00 9,0 4,6 - - 18 10 - - WSW 1021,6 60 0 0,0
20.04.2018 21:00:00 9,1 4,6 - - 21 11 - - W 1021,6 60 0 0,0
20.04.2018 20:00:00 11,0 4,6 - - 26 14 - - WSW 1021,0 60 30 0,0
20.04.2018 19:00:00 11,1 6,3 - - 28 15 - - W 1020,6 55 0 0,0
20.04.2018 18:00:00 12,1 7,0 - - 26 14 - - WSW 1020,0 65 42 0,0
20.04.2018 17:00:00 11,5 8,7 - - 28 15 46 25 WSW 1020,1 60 6 0,4
20.04.2018 16:00:00 14,5 5,6 - - 31 17 52 28 WSW 1019,4 60 48 0,0
20.04.2018 15:00:00 15,9 5,7 - - 31 17 46 25 WSW 1019,3 50 42 0,0
20.04.2018 14:00:00 13,9 5,8 - - 26 14 48 26 WSW 1019,3 70 18 0,0
20.04.2018 13:00:00 14,1 6,4 - - 28 15 50 27 WSW 1019,4 10 24 0,0
20.04.2018 12:00:00 15,4 5,9 - - 28 15 50 27 WSW 1019,2 10 36 0,0
20.04.2018 11:00:00 13,9 4,6 - - 31 17 48 26 WSW 1019,5 10 36 0,0
20.04.2018 10:00:00 13,8 5,1 9,0 6,9 26 14 48 26 WSW 1019,5 50 60 0,0
20.04.2018 09:00:00 12,6 5,8 - - 26 14 - - SW 1019,6 45 60 0,0
20.04.2018 08:00:00 10,6 6,8 - - 9 5 - - SSW 1019,7 45 42 0,0
20.04.2018 07:00:00 8,7 6,0 - - 9 5 - - SSW 1020,1 50 0 0,0
20.04.2018 06:00:00 7,1 5,7 - - 8 4 - - SW 1020,1 50 0 0,0
20.04.2018 05:00:00 6,7 5,8 - - 8 4 - - WSW 1020,5 45 0 0,0
20.04.2018 04:00:00 8,0 6,1 - - 8 4 - - SSW 1020,7 55 0 0,0
20.04.2018 03:00:00 7,9 6,8 - - 8 4 - - SW 1020,8 50 0 0,0
20.04.2018 02:00:00 9,1 6,8 - - 9 5 - - SSW 1021,3 55 0 0,0
20.04.2018 01:00:00 10,1 7,3 - - 8 4 - - S 1021,7 60 - 0,0
20.04.2018 00:00:00 9,7 7,0 - - 4 2 - - SSW 1021,9 55 0 0,0
19.04.2018 23:00:00 11,4 7,8 - - 13 7 - - SW 1021,9 60 0 0,0
19.04.2018 22:00:00 12,6 8,2 - - 13 7 - - SW 1021,7 60 0 0,0
19.04.2018 21:00:00 14,3 8,4 - - 16 9 - - SW 1021,4 60 12 0,0
19.04.2018 20:00:00 15,3 8,0 - - 22 12 - - WSW 1020,9 65 48 0,0
19.04.2018 19:00:00 16,5 7,9 - - 22 12 - - WSW 1020,6 65 48 0,0
19.04.2018 18:00:00 18,2 7,1 - - 26 14 - - WSW 1020,3 65 42 0,0
19.04.2018 17:00:00 18,4 8,6 - - 22 12 - - WSW 1020,1 10 24 0,0
19.04.2018 16:00:00 18,0 9,3 - - 22 12 - - WSW 1020,0 10 18 0,0
19.04.2018 15:00:00 17,7 9,7 - - 16 9 - - SW 1020,1 10 36 0,0
19.04.2018 14:00:00 17,7 10,2 - - 16 9 - - WSW 1019,8 10 36 0,0
19.04.2018 13:00:00 16,6 10,9 - - 18 10 - - W 1019,6 55 0 0,0
19.04.2018 12:00:00 17,1 10,3 - - 11 6 - - WSW 1019,4 10 0 0,0
19.04.2018 11:00:00 17,6 9,1 - - 22 12 - - SW 1019,3 10 54 0,0
19.04.2018 10:00:00 17,1 9,6 8,7 6,7 18 10 - - SW 1018,7 10 18 0,0
19.04.2018 09:00:00 15,3 9,3 - - 5 3 - - W 1018,4 55 18 -
19.04.2018 08:00:00 14,3 9,9 - - 4 2 - - SW 1018,0 50 18 -
19.04.2018 07:00:00 14,2 8,5 - - 11 6 - - SSW 1017,3 55 0 -
19.04.2018 06:00:00 14,7 8,1 - - 16 9 - - SW 1016,9 55 0 -
19.04.2018 05:00:00 15,7 8,4 - - 28 15 52 28 S 1016,3 50 0 -
19.04.2018 04:00:00 16,3 8,8 - - 29 16 46 25 SSW 1016,0 45 0 -
19.04.2018 03:00:00 16,5 9,1 - - 24 13 48 26 SSW 1016,3 50 0 -
19.04.2018 02:00:00 16,7 9,1 - - 15 8 - - SSW 1016,8 50 0 0,0
19.04.2018 01:00:00 17,2 9,8 - - 13 7 - - S 1016,8 55 - 0,0
19.04.2018 00:00:00 16,4 9,8 - - 11 6 - - SSE 1017,1 55 0 0,0
18.04.2018 23:00:00 16,1 8,3 - - 15 8 - - SSE 1017,4 55 0 0,0
18.04.2018 22:00:00 16,4 8,5 - - 5 3 - - S 1018,1 55 0 0,0
18.04.2018 21:00:00 16,8 8,2 - - 13 7 - - S 1018,1 55 0 0,0
18.04.2018 20:00:00 16,9 8,7 - - 15 8 - - S 1017,9 65 0 0,0
18.04.2018 19:00:00 17,0 9,2 - - 26 14 50 27 S 1018,0 65 24 0,0
18.04.2018 18:00:00 17,2 9,2 - - 24 13 46 25 SSW 1018,3 65 12 0,0
18.04.2018 17:00:00 18,7 8,3 - - 22 12 - - SSW 1018,4 10 6 0,0
18.04.2018 16:00:00 17,7 7,7 - - 22 12 - - S 1018,5 10 6 0,0
18.04.2018 15:00:00 18,2 7,9 - - 26 14 - - S 1018,6 10 54 0,0
18.04.2018 14:00:00 17,9 8,5 - - 21 11 - - SSW 1018,6 10 30 0,0
18.04.2018 13:00:00 17,4 8,5 - - 26 14 - - SSW 1018,5 10 54 0,0
18.04.2018 12:00:00 15,8 7,6 - - 22 12 - - SSW 1018,5 10 6 0,0
18.04.2018 11:00:00 14,9 7,4 - - 21 11 46 25 S 1018,0 45 12 0,0
18.04.2018 10:00:00 15,2 7,2 8,2 6,5 22 12 - - SSW 1017,3 10 54 0,0
18.04.2018 09:00:00 14,3 7,3 - - 13 7 - - S 1016,7 45 60 0,0
18.04.2018 08:00:00 12,5 6,9 - - 11 6 - - SSW 1016,4 45 60 0,0
18.04.2018 07:00:00 11,4 6,6 - - 11 6 - - S 1015,5 35 18 0,0
18.04.2018 06:00:00 11,3 6,8 - - 16 9 - - S 1014,3 30 0 0,0
18.04.2018 05:00:00 11,2 6,6 - - 15 8 - - S 1014,1 26 0 0,0
18.04.2018 04:00:00 10,8 6,7 - - 9 5 - - SSW 1013,8 24 0 0,0
18.04.2018 03:00:00 11,7 7,0 - - 9 5 - - S 1013,6 27 0 0,0
18.04.2018 02:00:00 11,8 7,1 - - 11 6 - - S 1013,0 40 0 0,0
18.04.2018 01:00:00 12,1 6,9 - - 16 9 - - S 1011,9 60 - 0,0
18.04.2018 00:00:00 12,4 6,8 - - 18 10 - - S 1011,2 60 0 0,0
17.04.2018 23:00:00 12,4 6,9 - - 21 11 - - SSW 1010,2 55 0 0,0
17.04.2018 22:00:00 12,3 6,7 - - 21 11 - - S 1008,9 65 0 0,0
17.04.2018 21:00:00 13,3 6,9 - - 24 13 - - SSW 1008,0 60 6 0,0
17.04.2018 20:00:00 13,8 7,3 - - 26 14 48 26 S 1006,7 45 48 0,0
17.04.2018 19:00:00 15,2 7,0 - - 34 18 52 28 SSW 1006,2 45 30 0,0
17.04.2018 18:00:00 16,2 6,6 - - 31 17 59 32 SSW 1004,8 45 12 0,0
17.04.2018 17:00:00 17,3 6,6 - - 35 19 54 29 SSW 1003,8 45 48 0,0
17.04.2018 16:00:00 17,1 6,9 - - 31 17 52 28 S 1003,6 55 18 0,0
17.04.2018 15:00:00 17,0 5,9 - - 35 19 54 29 SSW 1003,0 45 24 0,0
17.04.2018 14:00:00 15,6 5,4 - - 37 20 67 36 S 1002,8 40 30 0,0
17.04.2018 13:00:00 16,3 6,4 - - 34 18 65 35 SSW 1002,1 45 42 0,0
17.04.2018 12:00:00 15,7 6,9 - - 37 20 61 33 SSW 1001,4 60 54 0,0
17.04.2018 11:00:00 15,5 6,8 - - 29 16 54 29 S 1001,2 60 54 0,0
17.04.2018 10:00:00 15,1 6,7 8,0 6,4 22 12 46 25 S 1000,5 65 48 0,0
17.04.2018 09:00:00 13,9 6,4 - - 28 15 59 32 SSE 1000,7 65 18 0,0
17.04.2018 08:00:00 12,8 6,1 - - 16 9 - - S 1000,6 75 0 0,0
17.04.2018 07:00:00 12,4 5,9 - - 13 7 - - SSE 1000,3 - 0 0,0
17.04.2018 06:00:00 11,6 5,5 - - 21 11 - - SE 1000,8 60 0 0,0
17.04.2018 05:00:00 11,5 5,0 - - 21 11 52 28 SSE 1001,7 60 0 0,0
17.04.2018 04:00:00 11,3 4,6 - - 18 10 46 25 SSE 1002,6 55 0 0,0
17.04.2018 03:00:00 11,0 4,6 - - 28 15 52 28 S 1003,8 60 0 0,0

tt = Température de l'air
td = dewpoint
tt -20cm = Température de l'air -20cm
tt -100cm = Température de l'air -100cm
ff = Vitesse du vent
fx = gusts
dd = Direction du vent
ppp = reduced air pressure
vv = visibility
sd = Ensoleillement
rr = Quantités de précipitations

stations d'obs. à proximité